Weather History for Sheridan, WY

Change the Weather History Date:

Friday, October 5, 2012

  Actual Average Record
Temperature  
Mean Temperature 36 °F 49 °F  
Max Temperature 42 °F 64 °F 90 °F (1920)
Min Temperature 29 °F 34 °F 17 °F (1916)
Degree Days  
Heating Degree Days 29 16  
Month to date heating degree days 88 74  
Since 1 July heating degree days 238 377  
Cooling Degree Days 0 0  
Month to date cooling degree days 0 0  
Year to date cooling degree days 664 418  
Growing Degree Days 0 (Base 50)    
Moisture  
Dew Point 32 °F    
Average Humidity 83    
Maximum Humidity 100    
Minimum Humidity 65    
Precipitation  
Precipitation 0.33 in 0.05 in 1.22 in (1946)
Month to date precipitation 0.47 0.29  
Year to date precipitation 7.46 11.77  
Sea Level Pressure  
Sea Level Pressure 30.37 in    
Wind  
Wind Speed 4 mph (NW)    
Max Wind Speed 15 mph    
Max Gust Speed 17 mph    
Visibility 6 miles    
Events Fog , Snow    
T = Trace of Precipitation, MM = Missing Value Source: NWS Daily Summary

Daily Weather History Graph

Daily Weather History Graph

Search for Another Location

Airport:

Trip Planner

Search our weather history database for the weather conditions in past years. The results will help you decide how hot, cold, wet, or windy it might be!

Date:

Astronomy

Oct. 05, 2012 Rise Set
Actual Time 7:11 AM MDT 6:40 PM MDT
Civil Twilight 6:42 AM MDT 7:09 PM MDT
Nautical Twilight 6:08 AM MDT 7:42 PM MDT
Astronomical Twilight 5:34 AM MDT 8:17 PM MDT
Moon 9:54 PM MDT (10/5) 12:33 PM MDT (10/5)
Length of Visible Light 12h 26m
Length of Day
11h 28m
Waning Gibbous, 73% of the Moon is Illuminated
Oct 5
Waning Gibbous
Oct 8
Last Quarter
Oct 15
New
Oct 21
First Quarter
Oct 29
Full

Hourly Weather History & Observations

Time (MDT) Temp. Windchill Dew Point Humidity Pressure Visibility Wind Dir Wind Speed Gust Speed Precip Events Conditions
12:11 AM 33.8 °F - 33.8 °F 100% 30.33 in 5.0 mi Calm Calm - 0.00 in Snow Light Snow
12:53 AM 34.0 °F - 33.1 °F 96% 30.40 in 6.0 mi Calm Calm - 0.01 in Snow Light Snow
1:06 AM 33.8 °F - 33.8 °F 100% 30.32 in 8.0 mi Calm Calm - 0.00 in   Overcast
1:15 AM 33.8 °F - 33.8 °F 100% 30.32 in 7.0 mi Calm Calm - 0.00 in   Overcast
1:25 AM 33.8 °F - 33.8 °F 100% 30.32 in 6.0 mi Calm Calm - 0.00 in Snow Light Snow
1:39 AM 33.8 °F - 33.8 °F 100% 30.32 in 4.0 mi Calm Calm - 0.00 in Snow Light Snow
1:53 AM 33.8 °F - 33.8 °F 100% 30.32 in 4.0 mi Calm Calm - N/A Snow Light Snow
2:12 AM 33.8 °F - 33.8 °F 100% 30.32 in 6.0 mi Calm Calm - 0.00 in   Overcast
2:48 AM 33.8 °F - 33.8 °F 100% 30.32 in 3.0 mi Calm Calm - 0.00 in Snow Light Snow
2:53 AM 34.0 °F - 33.1 °F 96% 30.39 in 3.0 mi Calm Calm - 0.00 in Snow Light Snow
3:43 AM 33.8 °F 30.8 °F 33.8 °F 100% 30.31 in 5.0 mi SSW 3.5 mph - 0.01 in Snow Light Snow
3:53 AM 33.1 °F 30.0 °F 33.1 °F 100% 30.38 in 5.0 mi SSW 3.5 mph - 0.01 in Snow Light Snow
4:53 AM 34.0 °F - 33.1 °F 96% 30.37 in 10.0 mi Calm Calm - 0.00 in   Overcast
5:32 AM 33.8 °F - 32.0 °F 93% 30.31 in 10.0 mi Calm Calm - N/A   Overcast
5:53 AM 33.1 °F 30.0 °F 33.1 °F 100% 30.38 in 10.0 mi North 3.5 mph - N/A   Overcast
6:13 AM 33.8 °F - 33.8 °F 100% 30.31 in 10.0 mi Calm Calm - N/A   Overcast
6:28 AM 33.8 °F - 33.8 °F 100% 30.31 in 10.0 mi Calm Calm - N/A   Overcast
6:53 AM 34.0 °F - 33.1 °F 96% 30.39 in 10.0 mi Calm Calm - N/A   Overcast
7:14 AM 33.8 °F 30.8 °F 33.8 °F 100% 30.32 in 10.0 mi North 3.5 mph - N/A   Overcast
7:50 AM 33.8 °F 29.6 °F 33.8 °F 100% 30.32 in 8.0 mi NE 4.6 mph - N/A   Overcast
7:53 AM 34.0 °F 28.8 °F 33.1 °F 96% 30.41 in 8.0 mi NE 5.8 mph - N/A   Overcast
8:05 AM 33.8 °F 29.6 °F 33.8 °F 100% 30.33 in 9.0 mi NE 4.6 mph - N/A   Overcast
8:51 AM 33.8 °F - 33.8 °F 100% 30.33 in 10.0 mi Calm Calm - N/A   Overcast
8:53 AM 34.0 °F - 33.1 °F 96% 30.42 in 10.0 mi Calm Calm - N/A   Overcast
9:01 AM 35.6 °F - 33.8 °F 93% 30.34 in 10.0 mi Calm Calm - N/A   Overcast
9:15 AM 35.6 °F - 32.0 °F 87% 30.34 in 10.0 mi Calm Calm - N/A   Overcast
9:22 AM 35.6 °F - 32.0 °F 87% 30.34 in 10.0 mi Calm Calm - N/A   Overcast
9:29 AM 37.4 °F 34.9 °F 33.8 °F 87% 30.34 in 10.0 mi West 3.5 mph - N/A   Overcast
9:53 AM 37.0 °F - 33.1 °F 86% 30.42 in 10.0 mi Calm Calm - N/A   Overcast
10:00 AM 37.4 °F - 33.8 °F 87% 30.34 in 10.0 mi Calm Calm - N/A   Mostly Cloudy
10:53 AM 37.9 °F - 33.1 °F 83% 30.42 in 10.0 mi Calm Calm - N/A   Overcast
11:21 AM 39.2 °F 35.0 °F 33.8 °F 81% 30.34 in 10.0 mi North 5.8 mph - N/A   Overcast
11:46 AM 39.2 °F 35.9 °F 30.2 °F 70% 30.34 in 10.0 mi Variable 4.6 mph - N/A   Overcast
11:53 AM 41.0 °F 39.0 °F 33.1 °F 73% 30.41 in 10.0 mi NNE 3.5 mph - N/A   Overcast
12:26 PM 41.0 °F - 30.2 °F 65% 30.33 in 10.0 mi Calm Calm - N/A   Overcast
12:33 PM 42.8 °F 41.1 °F 30.2 °F 61% 30.33 in 10.0 mi North 3.5 mph - N/A   Overcast
12:53 PM 41.0 °F 38.0 °F 30.0 °F 65% 30.40 in 10.0 mi Variable 4.6 mph - N/A   Overcast
1:53 PM 41.0 °F 35.2 °F 30.0 °F 65% 30.38 in 10.0 mi North 9.2 mph - N/A   Overcast
2:53 PM 39.0 °F 31.4 °F 30.9 °F 73% 30.38 in 10.0 mi NNE 12.7 mph - N/A   Overcast
3:25 PM 33.8 °F 27.0 °F 32.0 °F 93% 30.33 in 1.8 mi NNW 8.1 mph - 0.00 in Snow Light Snow
3:31 PM 33.8 °F 26.4 °F 32.0 °F 93% 30.33 in 0.8 mi North 9.2 mph - 0.01 in Snow Light Snow
3:35 PM 33.8 °F 27.7 °F 32.0 °F 93% 30.33 in 0.5 mi NNW 6.9 mph - 0.02 in Fog , Snow Snow
3:42 PM 33.8 °F 29.6 °F 32.0 °F 93% 30.33 in 0.5 mi North 4.6 mph - 0.03 in Fog , Snow Snow
3:53 PM 33.1 °F - 33.1 °F 100% 30.43 in 0.2 mi Calm Calm - 0.05 in Fog , Snow Heavy Snow
3:59 PM 33.8 °F - 33.8 °F 100% 30.33 in 0.8 mi Calm Calm - 0.01 in Snow Light Snow
4:04 PM 33.8 °F 30.8 °F 33.8 °F 100% 30.33 in 2.5 mi West 3.5 mph - 0.01 in Snow Light Snow
4:07 PM 33.8 °F 30.8 °F 33.8 °F 100% 30.33 in 3.0 mi WSW 3.5 mph - 0.01 in Snow Light Snow
4:18 PM 33.8 °F 30.8 °F 33.8 °F 100% 30.33 in 6.0 mi SW 3.5 mph - 0.01 in Snow Light Snow
4:53 PM 35.1 °F 31.0 °F 33.1 °F 92% 30.42 in 10.0 mi SW 4.6 mph - 0.01 in   Overcast
5:30 PM 35.6 °F - 33.8 °F 93% 30.33 in 8.0 mi Calm Calm - 0.00 in   Overcast
5:53 PM 34.0 °F 31.0 °F 33.1 °F 96% 30.43 in 3.0 mi South 3.5 mph - 0.01 in Snow Light Snow
5:55 PM 33.8 °F 30.8 °F 33.8 °F 100% 30.33 in 1.5 mi SSW 3.5 mph - 0.00 in Snow Light Snow
6:06 PM 33.8 °F - 33.8 °F 100% 30.34 in 0.8 mi Calm Calm - 0.01 in Snow Light Snow
6:14 PM 33.8 °F 29.6 °F 33.8 °F 100% 30.33 in 0.5 mi South 4.6 mph - 0.02 in Fog , Snow Snow
6:24 PM 33.8 °F 28.6 °F 32.0 °F 93% 30.34 in 1.0 mi SSW 5.8 mph - 0.03 in Snow Light Snow
6:34 PM 33.8 °F - 33.8 °F 100% 30.34 in 2.0 mi Calm Calm - 0.04 in Snow Light Snow
6:47 PM 33.8 °F - 33.8 °F 100% 30.35 in 1.8 mi Calm Calm - 0.05 in Snow Light Snow
6:53 PM 33.1 °F 30.0 °F 33.1 °F 100% 30.44 in 1.2 mi NNE 3.5 mph - 0.06 in Snow Light Snow
7:01 PM 33.8 °F 28.6 °F 32.0 °F 93% 30.35 in 0.8 mi North 5.8 mph - 0.02 in Snow Light Snow
7:13 PM 32.0 °F 23.6 °F 32.0 °F 100% 30.36 in 0.8 mi North 10.4 mph 16.1 mph 0.04 in Snow Light Snow
7:29 PM 32.0 °F 25.6 °F 32.0 °F 100% 30.36 in 1.8 mi NNW 6.9 mph - 0.06 in Snow Light Snow
7:31 PM 32.0 °F 24.2 °F 32.0 °F 100% 30.37 in 3.0 mi NNW 9.2 mph - 0.06 in Snow Light Snow
7:37 PM 32.0 °F 23.6 °F 30.2 °F 93% 30.37 in 2.5 mi North 10.4 mph - 0.06 in Snow Light Snow
7:50 PM 32.0 °F 22.5 °F 30.2 °F 93% 30.38 in 1.5 mi North 12.7 mph - 0.06 in Snow Light Snow
7:53 PM 32.0 °F 23.0 °F 30.0 °F 92% 30.48 in 1.2 mi North 11.5 mph - 0.06 in Snow Light Snow
8:03 PM 30.2 °F 21.9 °F 30.2 °F 100% 30.38 in 1.0 mi North 9.2 mph - 0.01 in Snow Light Snow
8:10 PM 30.2 °F 22.6 °F 30.2 °F 100% 30.39 in 0.8 mi North 8.1 mph - 0.02 in Snow Light Snow
8:53 PM 30.9 °F - 30.0 °F 96% 30.50 in 0.8 mi Calm Calm - 0.07 in Snow Light Snow
9:19 PM 30.2 °F 23.4 °F 30.2 °F 100% 30.40 in 1.0 mi NNW 6.9 mph - 0.03 in Snow Light Snow
9:28 PM 30.2 °F 25.4 °F 30.2 °F 100% 30.40 in 0.8 mi WNW 4.6 mph - 0.04 in Snow Light Snow
9:34 PM 30.2 °F 23.4 °F 30.2 °F 100% 30.40 in 2.0 mi NW 6.9 mph - 0.05 in Snow Light Snow
9:43 PM 30.2 °F 22.6 °F 28.4 °F 93% 30.40 in 4.0 mi WNW 8.1 mph - 0.05 in Snow Light Snow
9:50 PM 30.2 °F 21.9 °F 28.4 °F 93% 30.40 in 5.0 mi WNW 9.2 mph - 0.05 in Snow Light Snow
9:53 PM 30.9 °F 23.5 °F 28.9 °F 92% 30.49 in 5.0 mi West 8.1 mph - 0.05 in Snow Light Snow
10:29 PM 30.2 °F 21.9 °F 28.4 °F 93% 30.39 in 7.0 mi West 9.2 mph - 0.00 in Snow Light Snow
10:53 PM 30.9 °F 22.8 °F 28.0 °F 89% 30.48 in 10.0 mi WNW 9.2 mph - 0.00 in   Overcast
11:53 PM 30.0 °F 25.2 °F 27.0 °F 88% 30.48 in 10.0 mi NW 4.6 mph - N/A   Overcast